Time,TemperatureF,DewpointF,PressureIn,WindDirection,WindDirectionDegrees,WindSpeedMPH,WindSpeedGustMPH,Humidity,HourlyPrecipIn,Conditions,Clouds,dailyrainin,SolarRadiationWatts/m^2,SoftwareType,DateUTC
2013-07-19 00:00:00,71.4,53.4,29.81,North,350,2.0,-999.0,50,-99.99,,,0.00,0.0,cwc,2013-07-19 06:00:00,
2013-07-19 00:05:00,71.4,53.4,29.81,NNW,331,4.0,-999.0,50,-99.99,,,0.00,0.0,cwc,2013-07-19 06:05:00,
2013-07-19 00:10:00,71.4,53.4,29.81,NNW,331,4.0,-999.0,50,-99.99,,,0.00,0.0,cwc,2013-07-19 06:10:00,
2013-07-19 00:15:00,71.3,53.3,29.81,NNW,336,2.0,-999.0,50,-99.99,,,0.00,0.0,cwc,2013-07-19 06:15:00,
2013-07-19 00:20:00,71.2,53.2,29.81,NNW,338,2.0,-999.0,50,-99.99,,,0.00,0.0,cwc,2013-07-19 06:20:00,
2013-07-19 00:25:00,71.0,53.0,29.80,North,351,3.0,-999.0,50,-99.99,,,0.00,0.0,cwc,2013-07-19 06:25:00,
2013-07-19 00:30:00,70.8,53.2,29.80,North,355,0.0,-999.0,51,-99.99,,,0.00,0.0,cwc,2013-07-19 06:30:00,
2013-07-19 00:35:00,70.6,53.0,29.80,North,355,0.0,-999.0,51,-99.99,,,0.00,0.0,cwc,2013-07-19 06:35:00,
2013-07-19 00:40:00,70.4,52.8,29.80,North,355,2.0,-999.0,51,-99.99,,,0.00,0.0,cwc,2013-07-19 06:40:00,
2013-07-19 00:45:00,70.3,52.7,29.80,North,355,2.0,-999.0,51,-99.99,,,0.00,0.0,cwc,2013-07-19 06:45:00,
2013-07-19 00:50:00,70.1,52.5,29.80,North,355,2.0,-999.0,51,-99.99,,,0.00,0.0,cwc,2013-07-19 06:50:00,
2013-07-19 00:55:00,70.0,52.7,29.80,North,355,2.0,-999.0,52,-99.99,,,0.00,0.0,cwc,2013-07-19 06:55:00,
2013-07-19 01:00:00,69.9,52.6,29.80,North,355,1.0,-999.0,52,-99.99,,,0.00,0.0,cwc,2013-07-19 07:00:00,
2013-07-19 01:05:00,69.7,52.4,29.79,North,355,0.0,-999.0,52,-99.99,,,0.00,0.0,cwc,2013-07-19 07:05:00,
2013-07-19 01:10:00,69.5,52.6,29.79,North,355,2.0,-999.0,53,-99.99,,,0.00,0.0,cwc,2013-07-19 07:10:00,
2013-07-19 01:15:00,69.3,52.4,29.80,North,355,0.0,-999.0,53,-99.99,,,0.00,0.0,cwc,2013-07-19 07:15:00,
2013-07-19 01:20:00,69.2,52.3,29.80,North,355,0.0,-999.0,53,-99.99,,,0.00,0.0,cwc,2013-07-19 07:20:00,
2013-07-19 01:25:00,69.1,52.2,29.79,North,355,2.0,-999.0,53,-99.99,,,0.00,0.0,cwc,2013-07-19 07:25:00,
2013-07-19 01:30:00,69.0,52.1,29.79,North,355,2.0,-999.0,53,-99.99,,,0.00,0.0,cwc,2013-07-19 07:30:00,
2013-07-19 01:35:00,69.0,52.1,29.79,North,355,0.0,-999.0,53,-99.99,,,0.00,0.0,cwc,2013-07-19 07:35:00,
2013-07-19 01:40:00,68.8,52.2,29.79,North,355,0.0,-999.0,54,-99.99,,,0.00,0.0,cwc,2013-07-19 07:40:00,
2013-07-19 01:45:00,68.6,52.0,29.79,North,355,0.0,-999.0,54,-99.99,,,0.00,0.0,cwc,2013-07-19 07:45:00,
2013-07-19 01:55:00,68.2,51.6,29.79,North,355,1.0,-999.0,54,-99.99,,,0.00,0.0,cwc,2013-07-19 07:55:00,
2013-07-19 02:00:00,68.0,51.8,29.79,North,355,0.0,-999.0,55,-99.99,,,0.00,0.0,cwc,2013-07-19 08:00:00,
2013-07-19 02:05:00,67.7,51.5,29.78,North,355,0.0,-999.0,55,-99.99,,,0.00,0.0,cwc,2013-07-19 08:05:00,
2013-07-19 02:10:00,67.5,51.7,29.78,North,355,0.0,-999.0,56,-99.99,,,0.00,0.0,cwc,2013-07-19 08:10:00,
2013-07-19 02:15:00,67.1,51.3,29.78,North,355,0.0,-999.0,56,-99.99,,,0.00,0.0,cwc,2013-07-19 08:15:00,
2013-07-19 02:20:00,66.8,51.0,29.78,North,355,0.0,-999.0,56,-99.99,,,0.00,0.0,cwc,2013-07-19 08:20:00,
2013-07-19 02:25:00,66.4,50.9,29.78,North,355,0.0,-999.0,57,-99.99,,,0.00,0.0,cwc,2013-07-19 08:25:00,
2013-07-19 02:30:00,66.0,50.5,29.78,North,355,0.0,-999.0,57,-99.99,,,0.00,0.0,cwc,2013-07-19 08:30:00,
2013-07-19 02:35:00,65.8,50.7,29.78,North,350,4.0,-999.0,58,-99.99,,,0.00,0.0,cwc,2013-07-19 08:35:00,
2013-07-19 02:45:00,66.3,50.8,29.78,North,355,5.0,-999.0,57,-99.99,,,0.00,0.0,cwc,2013-07-19 08:45:00,
2013-07-19 02:50:00,66.6,51.1,29.78,NNW,339,4.0,-999.0,57,-99.99,,,0.00,0.0,cwc,2013-07-19 08:50:00,
2013-07-19 02:55:00,66.8,51.3,29.78,NNW,330,3.0,-999.0,57,-99.99,,,0.00,0.0,cwc,2013-07-19 08:55:00,
2013-07-19 03:05:00,66.7,51.6,29.77,NNW,331,2.0,-999.0,58,-99.99,,,0.00,0.0,cwc,2013-07-19 09:05:00,
2013-07-19 03:10:00,66.6,51.5,29.77,NNW,331,2.0,-999.0,58,-99.99,,,0.00,0.0,cwc,2013-07-19 09:10:00,
2013-07-19 03:15:00,66.3,51.2,29.77,NNW,331,0.0,-999.0,58,-99.99,,,0.00,0.0,cwc,2013-07-19 09:15:00,
2013-07-19 03:25:00,65.5,51.1,29.77,NNW,331,0.0,-999.0,60,-99.99,,,0.00,0.0,cwc,2013-07-19 09:25:00,
2013-07-19 03:30:00,64.9,50.5,29.77,NNW,331,0.0,-999.0,60,-99.99,,,0.00,0.0,cwc,2013-07-19 09:30:00,
2013-07-19 03:35:00,64.4,50.4,29.77,NNW,331,0.0,-999.0,61,-99.99,,,0.00,0.0,cwc,2013-07-19 09:35:00,
2013-07-19 03:40:00,64.0,50.0,29.77,NNW,331,0.0,-999.0,61,-99.99,,,0.00,0.0,cwc,2013-07-19 09:40:00,
2013-07-19 03:45:00,63.7,50.0,29.77,NNW,331,0.0,-999.0,62,-99.99,,,0.00,0.0,cwc,2013-07-19 09:45:00,
2013-07-19 03:50:00,63.4,49.7,29.77,NNW,331,0.0,-999.0,62,-99.99,,,0.00,0.0,cwc,2013-07-19 09:50:00,
2013-07-19 03:55:00,63.1,49.8,29.77,NNW,331,0.0,-999.0,63,-99.99,,,0.00,0.0,cwc,2013-07-19 09:55:00,
2013-07-19 04:00:00,62.8,49.5,29.77,NNW,331,0.0,-999.0,63,-99.99,,,0.00,0.0,cwc,2013-07-19 10:00:00,
2013-07-19 04:05:00,62.6,49.3,29.77,NNW,331,0.0,-999.0,63,-99.99,,,0.00,0.0,cwc,2013-07-19 10:05:00,
2013-07-19 04:10:00,62.3,49.3,29.77,NNW,331,0.0,-999.0,64,-99.99,,,0.00,0.0,cwc,2013-07-19 10:10:00,
2013-07-19 04:15:00,62.1,49.1,29.77,NNW,331,0.0,-999.0,64,-99.99,,,0.00,0.0,cwc,2013-07-19 10:15:00,
2013-07-19 04:20:00,61.8,49.2,29.77,NNW,331,0.0,-999.0,65,-99.99,,,0.00,0.0,cwc,2013-07-19 10:20:00,
2013-07-19 04:25:00,61.5,49.3,29.77,NNW,331,0.0,-999.0,66,-99.99,,,0.00,0.0,cwc,2013-07-19 10:25:00,
2013-07-19 04:30:00,61.1,48.9,29.77,NNW,331,0.0,-999.0,66,-99.99,,,0.00,0.0,cwc,2013-07-19 10:30:00,
2013-07-19 04:35:00,60.7,48.8,29.77,NNW,331,0.0,-999.0,67,-99.99,,,0.00,0.0,cwc,2013-07-19 10:35:00,
2013-07-19 04:40:00,60.4,48.5,29.77,NNW,331,0.0,-999.0,67,-99.99,,,0.00,0.0,cwc,2013-07-19 10:40:00,
2013-07-19 04:45:00,60.2,48.3,29.77,NNW,331,0.0,-999.0,67,-99.99,,,0.00,0.0,cwc,2013-07-19 10:45:00,
2013-07-19 04:50:00,60.0,47.8,29.78,NNW,331,0.0,-999.0,66,-99.99,,,0.00,0.0,cwc,2013-07-19 10:50:00,
2013-07-19 04:55:00,59.6,47.7,29.78,NNW,331,2.0,-999.0,67,-99.99,,,0.00,0.0,cwc,2013-07-19 10:55:00,
2013-07-19 05:05:00,59.0,47.5,29.78,NNW,331,2.0,-999.0,68,-99.99,,,0.00,0.0,cwc,2013-07-19 11:05:00,
2013-07-19 05:10:00,58.6,47.4,29.78,NNW,331,2.0,-999.0,69,-99.99,,,0.00,0.0,cwc,2013-07-19 11:10:00,
2013-07-19 05:15:00,58.5,47.3,29.78,NNW,330,0.0,-999.0,69,-99.99,,,0.00,0.0,cwc,2013-07-19 11:15:00,
2013-07-19 05:20:00,58.3,47.1,29.78,NNW,330,2.0,-999.0,69,-99.99,,,0.00,0.0,cwc,2013-07-19 11:20:00,
2013-07-19 05:30:00,57.8,47.0,29.78,NNW,330,0.0,-999.0,70,-99.99,,,0.00,0.0,cwc,2013-07-19 11:30:00,
2013-07-19 05:35:00,57.6,46.8,29.78,NNW,330,0.0,-999.0,70,-99.99,,,0.00,0.0,cwc,2013-07-19 11:35:00,
2013-07-19 05:40:00,57.4,47.0,29.78,NNW,330,0.0,-999.0,71,-99.99,,,0.00,0.0,cwc,2013-07-19 11:40:00,
2013-07-19 05:45:00,57.1,46.7,29.78,NNW,330,0.0,-999.0,71,-99.99,,,0.00,0.0,cwc,2013-07-19 11:45:00,
2013-07-19 05:55:00,56.8,46.0,29.78,NNW,330,0.0,-999.0,70,-99.99,,,0.00,0.0,cwc,2013-07-19 11:55:00,
2013-07-19 06:05:00,56.6,46.5,29.79,NNW,330,0.0,-999.0,72,-99.99,,,0.00,0.0,cwc,2013-07-19 12:05:00,
2013-07-19 06:10:00,56.4,46.0,29.79,NNW,330,0.0,-999.0,71,-99.99,,,0.00,5.0,cwc,2013-07-19 12:10:00,
2013-07-19 06:15:00,56.3,46.2,29.79,NNW,330,1.0,-999.0,72,-99.99,,,0.00,7.0,cwc,2013-07-19 12:15:00,
2013-07-19 06:25:00,56.2,46.8,29.79,NNW,330,1.0,-999.0,74,-99.99,,,0.00,14.0,cwc,2013-07-19 12:25:00,
2013-07-19 06:30:00,56.5,46.4,29.79,NNW,330,0.0,-999.0,72,-99.99,,,0.00,16.0,cwc,2013-07-19 12:30:00,
2013-07-19 06:40:00,56.5,46.4,29.80,NNW,330,0.0,-999.0,72,-99.99,,,0.00,25.0,cwc,2013-07-19 12:40:00,
2013-07-19 06:45:00,56.5,46.4,29.80,NNW,330,0.0,-999.0,72,-99.99,,,0.00,21.0,cwc,2013-07-19 12:45:00,
2013-07-19 06:50:00,56.4,46.3,29.80,NNW,330,2.0,-999.0,72,-99.99,,,0.00,23.0,cwc,2013-07-19 12:50:00,
2013-07-19 06:55:00,56.4,46.3,29.80,NNW,330,2.0,-999.0,72,-99.99,,,0.00,25.0,cwc,2013-07-19 12:55:00,
2013-07-19 07:00:00,56.5,46.8,29.80,NNW,330,1.0,-999.0,73,-99.99,,,0.00,32.0,cwc,2013-07-19 13:00:00,
2013-07-19 07:05:00,56.7,47.0,29.80,NNW,330,0.0,-999.0,73,-99.99,,,0.00,63.0,cwc,2013-07-19 13:05:00,
2013-07-19 07:10:00,57.0,47.3,29.80,NNW,330,0.0,-999.0,73,-99.99,,,0.00,149.0,cwc,2013-07-19 13:10:00,
2013-07-19 07:15:00,57.4,47.3,29.80,NNW,330,0.0,-999.0,72,-99.99,,,0.00,167.0,cwc,2013-07-19 13:15:00,
2013-07-19 07:20:00,58.0,48.3,29.80,NNW,330,0.0,-999.0,73,-99.99,,,0.00,188.0,cwc,2013-07-19 13:20:00,
2013-07-19 07:25:00,59.0,49.3,29.80,NNW,330,0.0,-999.0,73,-99.99,,,0.00,207.0,cwc,2013-07-19 13:25:00,
2013-07-19 07:35:00,61.4,49.9,29.80,NNW,330,0.0,-999.0,68,-99.99,,,0.00,243.0,cwc,2013-07-19 13:35:00,
2013-07-19 07:40:00,62.5,50.3,29.80,NNW,330,0.0,-999.0,66,-99.99,,,0.00,260.0,cwc,2013-07-19 13:40:00,
2013-07-19 07:45:00,63.4,50.4,29.80,NNW,330,0.0,-999.0,64,-99.99,,,0.00,276.0,cwc,2013-07-19 13:45:00,
2013-07-19 07:50:00,64.3,51.0,29.80,NNW,330,0.0,-999.0,63,-99.99,,,0.00,294.0,cwc,2013-07-19 13:50:00,
2013-07-19 07:55:00,64.9,50.9,29.80,NNW,330,0.0,-999.0,61,-99.99,,,0.00,311.0,cwc,2013-07-19 13:55:00,
2013-07-19 08:00:00,65.6,51.6,29.80,NNW,330,0.0,-999.0,61,-99.99,,,0.00,325.0,cwc,2013-07-19 14:00:00,
2013-07-19 08:05:00,66.3,51.5,29.80,NNW,330,0.0,-999.0,59,-99.99,,,0.00,345.0,cwc,2013-07-19 14:05:00,
2013-07-19 08:10:00,67.1,52.0,29.80,NNW,330,0.0,-999.0,58,-99.99,,,0.00,359.0,cwc,2013-07-19 14:10:00,
2013-07-19 08:15:00,67.8,52.0,29.80,NNW,330,0.0,-999.0,56,-99.99,,,0.00,376.0,cwc,2013-07-19 14:15:00,
2013-07-19 08:20:00,68.4,52.2,29.80,NNW,330,0.0,-999.0,55,-99.99,,,0.00,394.0,cwc,2013-07-19 14:20:00,
2013-07-19 08:25:00,68.9,52.0,29.79,NNW,330,1.0,-999.0,53,-99.99,,,0.00,410.0,cwc,2013-07-19 14:25:00,
2013-07-19 08:30:00,69.0,52.4,29.79,NNW,330,1.0,-999.0,54,-99.99,,,0.00,422.0,cwc,2013-07-19 14:30:00,
2013-07-19 08:35:00,69.3,52.7,29.79,NNW,331,0.0,-999.0,54,-99.99,,,0.00,445.0,cwc,2013-07-19 14:35:00,
2013-07-19 08:40:00,69.8,52.5,29.79,NNW,331,0.0,-999.0,52,-99.99,,,0.00,461.0,cwc,2013-07-19 14:40:00,
2013-07-19 08:45:00,70.4,52.8,29.79,NNW,331,0.0,-999.0,51,-99.99,,,0.00,475.0,cwc,2013-07-19 14:45:00,
2013-07-19 08:50:00,70.8,52.8,29.78,NNW,331,0.0,-999.0,50,-99.99,,,0.00,490.0,cwc,2013-07-19 14:50:00,
2013-07-19 08:55:00,71.2,53.2,29.78,NNW,331,0.0,-999.0,50,-99.99,,,0.00,508.0,cwc,2013-07-19 14:55:00,
2013-07-19 09:00:00,71.6,53.6,29.78,NNW,331,0.0,-999.0,50,-99.99,,,0.00,526.0,cwc,2013-07-19 15:00:00,
2013-07-19 09:05:00,72.0,53.6,29.78,NNW,333,1.0,-999.0,49,-99.99,,,0.00,541.0,cwc,2013-07-19 15:05:00,
2013-07-19 09:10:00,72.2,53.8,29.78,NNW,333,2.0,-999.0,49,-99.99,,,0.00,557.0,cwc,2013-07-19 15:10:00,
2013-07-19 09:15:00,72.2,53.8,29.77,NNW,333,1.0,-999.0,49,-99.99,,,0.00,573.0,cwc,2013-07-19 15:15:00,
2013-07-19 09:25:00,73.1,54.4,29.77,NNW,333,2.0,-999.0,48,-99.99,,,0.00,601.0,cwc,2013-07-19 15:25:00,
2013-07-19 09:30:00,73.6,54.5,29.76,NNW,333,0.0,-999.0,47,-99.99,,,0.00,615.0,cwc,2013-07-19 15:30:00,
2013-07-19 09:35:00,74.2,55.1,29.76,NNW,334,2.0,-999.0,47,-99.99,,,0.00,633.0,cwc,2013-07-19 15:35:00,
2013-07-19 09:40:00,74.9,55.5,29.76,NNW,334,1.0,-999.0,46,-99.99,,,0.00,647.0,cwc,2013-07-19 15:40:00,
2013-07-19 09:45:00,75.4,55.2,29.76,NNW,335,0.0,-999.0,44,-99.99,,,0.00,663.0,cwc,2013-07-19 15:45:00,
2013-07-19 09:50:00,76.0,55.8,29.75,NNW,334,1.0,-999.0,44,-99.99,,,0.00,675.0,cwc,2013-07-19 15:50:00,
2013-07-19 09:55:00,76.3,55.8,29.75,NNW,336,4.0,-999.0,43,-99.99,,,0.00,687.0,cwc,2013-07-19 15:55:00,
2013-07-19 10:00:00,76.3,55.8,29.75,NNW,335,2.0,-999.0,43,-99.99,,,0.00,701.0,cwc,2013-07-19 16:00:00,
2013-07-19 10:05:00,76.8,56.3,29.75,NNW,336,3.0,-999.0,43,-99.99,,,0.00,714.0,cwc,2013-07-19 16:05:00,
2013-07-19 10:10:00,77.2,56.3,29.74,NNW,344,5.0,-999.0,42,-99.99,,,0.00,726.0,cwc,2013-07-19 16:10:00,
2013-07-19 10:15:00,77.5,56.3,29.74,NNW,345,4.0,-999.0,41,-99.99,,,0.00,740.0,cwc,2013-07-19 16:15:00,
2013-07-19 10:20:00,77.8,56.6,29.74,NNW,347,3.0,-999.0,41,-99.99,,,0.00,754.0,cwc,2013-07-19 16:20:00,
2013-07-19 10:25:00,78.4,56.8,29.73,North,355,3.0,-999.0,40,-99.99,,,0.00,765.0,cwc,2013-07-19 16:25:00,
2013-07-19 10:30:00,79.0,57.4,29.73,North,355,1.0,-999.0,40,-99.99,,,0.00,777.0,cwc,2013-07-19 16:30:00,
2013-07-19 10:35:00,79.9,57.9,29.73,North,355,0.0,-999.0,39,-99.99,,,0.00,791.0,cwc,2013-07-19 16:35:00,
2013-07-19 10:40:00,81.0,59.0,29.72,North,355,5.0,-999.0,39,-99.99,,,0.00,803.0,cwc,2013-07-19 16:40:00,
2013-07-19 10:45:00,81.3,58.6,29.72,North,5,0.0,-999.0,37,-99.99,,,0.00,816.0,cwc,2013-07-19 16:45:00,
2013-07-19 10:50:00,81.8,58.8,29.72,North,350,3.0,-999.0,36,-99.99,,,0.00,824.0,cwc,2013-07-19 16:50:00,
2013-07-19 11:00:00,81.9,58.9,29.71,NNW,348,4.0,-999.0,36,-99.99,,,0.00,840.0,cwc,2013-07-19 17:00:00,
2013-07-19 11:05:00,81.9,58.9,29.71,NNW,348,1.0,-999.0,36,-99.99,,,0.00,851.0,cwc,2013-07-19 17:05:00,
2013-07-19 11:10:00,82.7,59.3,29.71,NNW,334,3.0,-999.0,35,-99.99,,,0.00,858.0,cwc,2013-07-19 17:10:00,
2013-07-19 11:15:00,83.1,59.7,29.71,North,355,2.0,-999.0,35,-99.99,,,0.00,872.0,cwc,2013-07-19 17:15:00,
2013-07-19 11:20:00,83.7,59.9,29.71,North,349,4.0,-999.0,34,-99.99,,,0.00,877.0,cwc,2013-07-19 17:20:00,
2013-07-19 11:25:00,83.8,60.0,29.71,SW,222,7.0,-999.0,34,-99.99,,,0.00,888.0,cwc,2013-07-19 17:25:00,
2013-07-19 11:30:00,83.9,60.5,29.70,South,178,5.0,-999.0,35,-99.99,,,0.00,896.0,cwc,2013-07-19 17:30:00,
2013-07-19 11:35:00,83.9,60.1,29.69,SSE,165,2.0,-999.0,34,-99.99,,,0.00,904.0,cwc,2013-07-19 17:35:00,
2013-07-19 11:40:00,83.9,60.5,29.69,SSE,156,3.0,-999.0,35,-99.99,,,0.00,911.0,cwc,2013-07-19 17:40:00,
2013-07-19 11:45:00,83.8,60.0,29.69,SSE,159,1.0,-999.0,34,-99.99,,,0.00,919.0,cwc,2013-07-19 17:45:00,
2013-07-19 11:50:00,83.8,59.7,29.69,SSE,164,3.0,-999.0,33,-99.99,,,0.00,926.0,cwc,2013-07-19 17:50:00,
2013-07-19 11:55:00,83.9,60.5,29.68,South,188,6.0,-999.0,35,-99.99,,,0.00,930.0,cwc,2013-07-19 17:55:00,
2013-07-19 12:00:00,83.9,60.5,29.68,SSW,192,7.0,-999.0,35,-99.99,,,0.00,940.0,cwc,2013-07-19 18:00:00,
2013-07-19 12:05:00,83.9,60.5,29.68,South,172,6.0,-999.0,35,-99.99,,,0.00,947.0,cwc,2013-07-19 18:05:00,
2013-07-19 12:10:00,84.3,60.5,29.67,SE,133,0.0,-999.0,34,-99.99,,,0.00,954.0,cwc,2013-07-19 18:10:00,
2013-07-19 12:15:00,85.0,60.9,29.67,SSW,205,6.0,-999.0,33,-99.99,,,0.00,960.0,cwc,2013-07-19 18:15:00,
2013-07-19 12:20:00,85.0,60.9,29.67,South,188,4.0,-999.0,33,-99.99,,,0.00,963.0,cwc,2013-07-19 18:20:00,
2013-07-19 12:25:00,85.3,61.2,29.66,SSW,205,9.0,-999.0,33,-99.99,,,0.00,969.0,cwc,2013-07-19 18:25:00,
2013-07-19 12:30:00,85.1,61.0,29.66,SSW,206,3.0,-999.0,33,-99.99,,,0.00,976.0,cwc,2013-07-19 18:30:00,
2013-07-19 12:35:00,85.2,60.7,29.66,South,188,7.0,-999.0,32,-99.99,,,0.00,984.0,cwc,2013-07-19 18:35:00,
2013-07-19 12:45:00,85.6,61.1,29.65,SSW,199,9.0,-999.0,32,-99.99,,,0.00,998.0,cwc,2013-07-19 18:45:00,
2013-07-19 12:55:00,86.2,61.4,29.64,South,182,5.0,-999.0,31,-99.99,,,0.00,1004.0,cwc,2013-07-19 18:55:00,
2013-07-19 13:00:00,86.4,61.6,29.64,SSW,209,7.0,-999.0,31,-99.99,,,0.00,1007.0,cwc,2013-07-19 19:00:00,
2013-07-19 13:10:00,86.7,61.9,29.64,SSW,202,7.0,-999.0,31,-99.99,,,0.00,1035.0,cwc,2013-07-19 19:10:00,
2013-07-19 13:15:00,86.9,61.7,29.63,SSW,192,4.0,-999.0,30,-99.99,,,0.00,1030.0,cwc,2013-07-19 19:15:00,
2013-07-19 13:20:00,87.4,62.2,29.63,SSW,198,12.0,-999.0,30,-99.99,,,0.00,1049.0,cwc,2013-07-19 19:20:00,
2013-07-19 13:25:00,87.6,62.0,29.63,South,175,9.0,-999.0,29,-99.99,,,0.00,1093.0,cwc,2013-07-19 19:25:00,
2013-07-19 13:30:00,87.5,61.9,29.62,South,187,5.0,-999.0,29,-99.99,,,0.00,1039.0,cwc,2013-07-19 19:30:00,
2013-07-19 13:35:00,87.5,62.3,29.62,SSE,164,4.0,-999.0,30,-99.99,,,0.00,559.0,cwc,2013-07-19 19:35:00,
2013-07-19 13:40:00,87.4,62.2,29.62,SSW,195,11.0,-999.0,30,-99.99,,,0.00,671.0,cwc,2013-07-19 19:40:00,
2013-07-19 13:45:00,86.6,61.4,29.62,SSW,200,7.0,-999.0,30,-99.99,,,0.00,267.0,cwc,2013-07-19 19:45:00,
2013-07-19 13:50:00,86.5,61.3,29.62,SW,217,5.0,-999.0,30,-99.99,,,0.00,267.0,cwc,2013-07-19 19:50:00,
2013-07-19 13:55:00,86.5,61.3,29.62,WSW,241,5.0,-999.0,30,-99.99,,,0.00,364.0,cwc,2013-07-19 19:55:00,
2013-07-19 14:00:00,86.4,61.2,29.62,SSW,199,11.0,-999.0,30,-99.99,,,0.00,844.0,cwc,2013-07-19 20:00:00,
2013-07-19 14:05:00,86.3,61.1,29.61,SSW,203,4.0,-999.0,30,-99.99,,,0.00,392.0,cwc,2013-07-19 20:05:00,
2013-07-19 14:10:00,86.8,61.6,29.61,SSW,194,7.0,-999.0,30,-99.99,,,0.00,823.0,cwc,2013-07-19 20:10:00,
2013-07-19 14:15:00,87.0,61.8,29.60,SSE,157,7.0,-999.0,30,-99.99,,,0.00,854.0,cwc,2013-07-19 20:15:00,
2013-07-19 14:20:00,87.1,61.9,29.61,South,177,8.0,-999.0,30,-99.99,,,0.00,190.0,cwc,2013-07-19 20:20:00,
2013-07-19 14:25:00,86.3,61.1,29.61,SSE,167,4.0,-999.0,30,-99.99,,,0.00,176.0,cwc,2013-07-19 20:25:00,
2013-07-19 14:30:00,85.7,60.5,29.61,SSE,167,5.0,-999.0,30,-99.99,,,0.00,120.0,cwc,2013-07-19 20:30:00,
2013-07-19 14:35:00,85.3,60.5,29.62,SSE,155,5.0,-999.0,31,-99.99,,,0.00,93.0,cwc,2013-07-19 20:35:00,
2013-07-19 14:40:00,84.8,60.3,29.62,SSE,167,4.0,-999.0,32,-99.99,,,0.00,74.0,cwc,2013-07-19 20:40:00,
2013-07-19 14:45:00,84.5,60.0,29.62,SSE,161,3.0,-999.0,32,-99.99,,,0.00,60.0,cwc,2013-07-19 20:45:00,
2013-07-19 14:50:00,84.2,60.1,29.62,SSE,148,5.0,-999.0,33,-99.99,,,0.00,56.0,cwc,2013-07-19 20:50:00,
2013-07-19 14:55:00,83.9,59.8,29.61,SSW,195,9.0,-999.0,33,-99.99,,,0.00,56.0,cwc,2013-07-19 20:55:00,
2013-07-19 15:00:00,83.5,59.0,29.61,SE,143,5.0,-999.0,32,-99.99,,,0.00,53.0,cwc,2013-07-19 21:00:00,
2013-07-19 15:05:00,83.0,58.9,29.62,SE,130,14.0,-999.0,33,-99.99,,,0.00,46.0,cwc,2013-07-19 21:05:00,
2013-07-19 15:10:00,82.3,58.5,29.61,SSE,155,2.0,-999.0,34,-99.99,,,0.00,39.0,cwc,2013-07-19 21:10:00,
2013-07-19 15:15:00,81.5,59.2,29.61,ENE,76,7.0,-999.0,38,-99.99,,,0.00,30.0,cwc,2013-07-19 21:15:00,
2013-07-19 15:20:00,80.3,58.7,29.62,SSE,159,6.0,-999.0,40,-99.99,,,0.00,25.0,cwc,2013-07-19 21:20:00,
2013-07-19 15:25:00,79.4,58.5,29.63,SSE,153,0.0,-999.0,42,-99.99,,,0.00,21.0,cwc,2013-07-19 21:25:00,
2013-07-19 15:45:00,75.5,57.9,29.63,SSE,167,4.0,-999.0,51,-99.99,,,0.00,14.0,cwc,2013-07-19 21:45:00,
2013-07-19 15:55:00,73.3,57.5,29.63,South,171,1.0,-999.0,56,-99.99,,,0.00,14.0,cwc,2013-07-19 21:55:00,
2013-07-19 16:00:00,72.4,56.6,29.64,NW,319,3.0,-999.0,56,-99.99,,,0.01,16.0,cwc,2013-07-19 22:00:00,
2013-07-19 16:05:00,71.7,56.9,29.64,NNW,331,2.0,-999.0,59,-99.99,,,0.01,18.0,cwc,2013-07-19 22:05:00,
2013-07-19 16:25:00,70.7,56.7,29.64,WSW,244,0.0,-999.0,61,-99.99,,,0.01,35.0,cwc,2013-07-19 22:25:00,
2013-07-19 16:35:00,71.0,55.5,29.63,ENE,69,2.0,-999.0,57,-99.99,,,0.01,53.0,cwc,2013-07-19 22:35:00,
2013-07-19 16:50:00,72.2,53.8,29.64,SSW,196,0.0,-999.0,49,-99.99,,,0.01,67.0,cwc,2013-07-19 22:50:00,
2013-07-19 17:20:00,72.9,54.5,29.64,SSW,195,2.0,-999.0,49,-99.99,,,0.01,98.0,cwc,2013-07-19 23:20:00,
2013-07-19 17:35:00,73.5,56.2,29.63,SSW,195,1.0,-999.0,52,-99.99,,,0.01,105.0,cwc,2013-07-19 23:35:00,
2013-07-19 17:40:00,73.5,55.9,29.64,SSE,155,3.0,-999.0,51,-99.99,,,0.01,100.0,cwc,2013-07-19 23:40:00,
2013-07-19 17:45:00,73.5,55.5,29.64,SSE,154,1.0,-999.0,50,-99.99,,,0.01,98.0,cwc,2013-07-19 23:45:00,
2013-07-19 17:55:00,73.4,55.4,29.66,SSE,151,3.0,-999.0,50,-99.99,,,0.01,74.0,cwc,2013-07-19 23:55:00,
2013-07-19 18:00:00,73.3,54.9,29.67,SSE,150,2.0,-999.0,49,-99.99,,,0.01,58.0,cwc,2013-07-20 00:00:00,
2013-07-19 18:05:00,73.1,54.7,29.67,SE,146,2.0,-999.0,49,-99.99,,,0.01,58.0,cwc,2013-07-20 00:05:00,
2013-07-19 18:10:00,73.0,54.3,29.68,ESE,108,0.0,-999.0,48,-99.99,,,0.01,63.0,cwc,2013-07-20 00:10:00,
2013-07-19 18:15:00,73.0,54.3,29.68,ESE,108,0.0,-999.0,48,-99.99,,,0.01,62.0,cwc,2013-07-20 00:15:00,
2013-07-19 18:20:00,73.1,54.0,29.69,ESE,108,0.0,-999.0,47,-99.99,,,0.01,63.0,cwc,2013-07-20 00:20:00,
2013-07-19 18:25:00,73.1,54.0,29.70,ESE,108,0.0,-999.0,47,-99.99,,,0.01,69.0,cwc,2013-07-20 00:25:00,
2013-07-19 18:30:00,73.2,54.1,29.70,ESE,108,0.0,-999.0,47,-99.99,,,0.01,77.0,cwc,2013-07-20 00:30:00,
2013-07-19 18:35:00,73.3,53.9,29.70,ESE,107,0.0,-999.0,46,-99.99,,,0.01,93.0,cwc,2013-07-20 00:35:00,
2013-07-19 18:40:00,73.5,54.4,29.70,ESE,108,0.0,-999.0,47,-99.99,,,0.01,105.0,cwc,2013-07-20 00:40:00,
2013-07-19 18:45:00,73.8,54.4,29.70,ESE,108,0.0,-999.0,46,-99.99,,,0.01,113.0,cwc,2013-07-20 00:45:00,
2013-07-19 18:50:00,74.0,54.6,29.70,ESE,108,0.0,-999.0,46,-99.99,,,0.01,118.0,cwc,2013-07-20 00:50:00,
2013-07-19 18:55:00,74.2,55.1,29.70,ESE,107,0.0,-999.0,47,-99.99,,,0.01,121.0,cwc,2013-07-20 00:55:00,
2013-07-19 19:00:00,74.4,55.7,29.70,ESE,108,0.0,-999.0,48,-99.99,,,0.01,125.0,cwc,2013-07-20 01:00:00,
2013-07-19 19:05:00,74.5,56.5,29.70,ESE,108,1.0,-999.0,50,-99.99,,,0.01,120.0,cwc,2013-07-20 01:05:00,
2013-07-19 19:10:00,74.4,56.4,29.70,ESE,107,2.0,-999.0,50,-99.99,,,0.01,109.0,cwc,2013-07-20 01:10:00,
2013-07-19 19:15:00,74.3,56.3,29.71,ESE,107,0.0,-999.0,50,-99.99,,,0.01,100.0,cwc,2013-07-20 01:15:00,
2013-07-19 19:20:00,74.2,55.1,29.71,ESE,105,4.0,-999.0,47,-99.99,,,0.01,93.0,cwc,2013-07-20 01:20:00,
2013-07-19 19:25:00,74.1,53.9,29.71,NE,35,4.0,-999.0,44,-99.99,,,0.01,83.0,cwc,2013-07-20 01:25:00,
2013-07-19 19:30:00,73.9,53.7,29.71,NE,35,3.0,-999.0,44,-99.99,,,0.01,74.0,cwc,2013-07-20 01:30:00,
2013-07-19 19:40:00,73.3,53.5,29.72,NE,46,4.0,-999.0,45,-99.99,,,0.01,56.0,cwc,2013-07-20 01:40:00,
2013-07-19 19:45:00,72.8,53.4,29.72,NE,36,5.0,-999.0,46,-99.99,,,0.01,46.0,cwc,2013-07-20 01:45:00,
2013-07-19 19:50:00,72.1,53.0,29.72,NNE,13,5.0,-999.0,47,-99.99,,,0.01,33.0,cwc,2013-07-20 01:50:00,
2013-07-19 19:55:00,71.4,52.3,29.72,North,355,3.0,-999.0,47,-99.99,,,0.01,23.0,cwc,2013-07-20 01:55:00,
2013-07-19 20:00:00,71.1,52.0,29.73,NNE,24,3.0,-999.0,47,-99.99,,,0.01,12.0,cwc,2013-07-20 02:00:00,
2013-07-19 20:05:00,70.7,52.0,29.73,North,355,6.0,-999.0,48,-99.99,,,0.01,7.0,cwc,2013-07-20 02:05:00,
2013-07-19 20:10:00,70.5,52.1,29.73,NNE,32,6.0,-999.0,49,-99.99,,,0.01,0.0,cwc,2013-07-20 02:10:00,
2013-07-19 20:20:00,70.1,51.7,29.73,NNE,30,4.0,-999.0,49,-99.99,,,0.01,0.0,cwc,2013-07-20 02:20:00,
2013-07-19 20:25:00,69.8,51.4,29.73,NNE,30,6.0,-999.0,49,-99.99,,,0.01,0.0,cwc,2013-07-20 02:25:00,
2013-07-19 20:35:00,69.4,51.4,29.72,NNE,22,3.0,-999.0,50,-99.99,,,0.01,0.0,cwc,2013-07-20 02:35:00,
2013-07-19 20:40:00,69.3,51.3,29.72,NNE,24,1.0,-999.0,50,-99.99,,,0.01,0.0,cwc,2013-07-20 02:40:00,
2013-07-19 20:45:00,69.2,51.2,29.72,NNE,24,3.0,-999.0,50,-99.99,,,0.01,0.0,cwc,2013-07-20 02:45:00,
2013-07-19 20:50:00,69.1,51.5,29.72,NNE,24,0.0,-999.0,51,-99.99,,,0.01,0.0,cwc,2013-07-20 02:50:00,
2013-07-19 21:00:00,68.9,51.3,29.72,NNE,24,0.0,-999.0,51,-99.99,,,0.01,0.0,cwc,2013-07-20 03:00:00,
2013-07-19 21:05:00,68.7,51.1,29.72,NNE,24,3.0,-999.0,51,-99.99,,,0.01,0.0,cwc,2013-07-20 03:05:00,
2013-07-19 21:15:00,68.5,50.9,29.73,NNE,24,0.0,-999.0,51,-99.99,,,0.01,0.0,cwc,2013-07-20 03:15:00,
2013-07-19 21:20:00,68.4,50.8,29.73,NNE,24,0.0,-999.0,51,-99.99,,,0.01,0.0,cwc,2013-07-20 03:20:00,
2013-07-19 21:25:00,68.3,50.7,29.73,NNE,24,0.0,-999.0,51,-99.99,,,0.01,0.0,cwc,2013-07-20 03:25:00,
2013-07-19 21:30:00,68.2,50.9,29.73,NNE,24,3.0,-999.0,52,-99.99,,,0.01,0.0,cwc,2013-07-20 03:30:00,
2013-07-19 21:35:00,68.2,50.6,29.73,SSE,165,3.0,-999.0,51,-99.99,,,0.01,0.0,cwc,2013-07-20 03:35:00,
2013-07-19 21:40:00,68.3,50.7,29.72,SSE,167,1.0,-999.0,51,-99.99,,,0.01,0.0,cwc,2013-07-20 03:40:00,
2013-07-19 21:45:00,68.4,50.4,29.72,SSE,167,0.0,-999.0,50,-99.99,,,0.01,0.0,cwc,2013-07-20 03:45:00,
2013-07-19 21:55:00,68.5,50.5,29.73,SSE,167,0.0,-999.0,50,-99.99,,,0.01,0.0,cwc,2013-07-20 03:55:00,
2013-07-19 22:00:00,68.5,50.9,29.73,SSE,167,3.0,-999.0,51,-99.99,,,0.01,0.0,cwc,2013-07-20 04:00:00,
2013-07-19 22:05:00,68.3,50.7,29.74,NE,40,8.0,-999.0,51,-99.99,,,0.01,0.0,cwc,2013-07-20 04:05:00,
2013-07-19 22:10:00,68.4,51.5,29.74,NNE,17,5.0,-999.0,53,-99.99,,,0.01,0.0,cwc,2013-07-20 04:10:00,
2013-07-19 22:15:00,68.8,51.5,29.74,NNW,338,5.0,-999.0,52,-99.99,,,0.01,0.0,cwc,2013-07-20 04:15:00,
2013-07-19 22:25:00,68.7,51.4,29.74,NNE,16,9.0,-999.0,52,-99.99,,,0.01,0.0,cwc,2013-07-20 04:25:00,
2013-07-19 22:30:00,68.6,51.7,29.75,North,360,4.0,-999.0,53,-99.99,,,0.01,0.0,cwc,2013-07-20 04:30:00,
2013-07-19 22:40:00,68.5,51.6,29.75,North,351,1.0,-999.0,53,-99.99,,,0.01,0.0,cwc,2013-07-20 04:40:00,
2013-07-19 22:45:00,68.5,51.6,29.75,North,351,2.0,-999.0,53,-99.99,,,0.01,0.0,cwc,2013-07-20 04:45:00,
2013-07-19 22:50:00,68.6,51.7,29.75,North,351,1.0,-999.0,53,-99.99,,,0.01,0.0,cwc,2013-07-20 04:50:00,
2013-07-19 22:55:00,68.6,51.7,29.75,North,351,0.0,-999.0,53,-99.99,,,0.01,0.0,cwc,2013-07-20 04:55:00,
2013-07-19 23:05:00,68.5,51.6,29.75,North,351,0.0,-999.0,53,-99.99,,,0.01,0.0,cwc,2013-07-20 05:05:00,
2013-07-19 23:10:00,68.5,51.6,29.75,North,351,0.0,-999.0,53,-99.99,,,0.01,0.0,cwc,2013-07-20 05:10:00,
2013-07-19 23:15:00,68.5,51.2,29.76,North,351,2.0,-999.0,52,-99.99,,,0.01,0.0,cwc,2013-07-20 05:15:00,
2013-07-19 23:20:00,68.6,51.7,29.76,North,351,2.0,-999.0,53,-99.99,,,0.01,0.0,cwc,2013-07-20 05:20:00,
2013-07-19 23:25:00,68.5,51.6,29.76,North,351,0.0,-999.0,53,-99.99,,,0.01,0.0,cwc,2013-07-20 05:25:00,
2013-07-19 23:30:00,68.3,51.4,29.76,North,351,1.0,-999.0,53,-99.99,,,0.01,0.0,cwc,2013-07-20 05:30:00,
2013-07-19 23:35:00,68.2,51.3,29.76,North,350,0.0,-999.0,53,-99.99,,,0.01,0.0,cwc,2013-07-20 05:35:00,
2013-07-19 23:40:00,68.0,51.1,29.77,North,350,0.0,-999.0,53,-99.99,,,0.01,0.0,cwc,2013-07-20 05:40:00,
2013-07-19 23:45:00,67.9,51.3,29.77,North,351,2.0,-999.0,54,-99.99,,,0.01,0.0,cwc,2013-07-20 05:45:00,
2013-07-19 23:50:00,67.9,51.0,29.77,North,351,0.0,-999.0,53,-99.99,,,0.01,0.0,cwc,2013-07-20 05:50:00,
2013-07-19 23:55:00,67.9,51.0,29.77,North,351,0.0,-999.0,53,-99.99,,,0.01,0.0,cwc,2013-07-20 05:55:00,